TimeCST,TemperatureF,Dew PointF,Humidity,Sea Level PressureIn,VisibilityMPH,Wind Direction,Wind SpeedMPH,Gust SpeedMPH,PrecipitationIn,Events,Conditions,WindDirDegrees,DateUTC
12:13 AM,42.8,30.2,61,29.73,10.0,SSE,24.2,34.5,N/A,,Clear,160,2013-11-20 06:13:00
12:34 AM,44.6,30.2,57,29.72,10.0,South,26.5,32.2,N/A,,Clear,170,2013-11-20 06:34:00
12:53 AM,44.6,30.2,57,29.73,10.0,SSE,25.3,33.4,N/A,,Clear,160,2013-11-20 06:53:00
1:13 AM,42.8,30.2,61,29.73,10.0,South,26.5,34.5,N/A,,Clear,170,2013-11-20 07:13:00
1:34 AM,42.8,30.2,61,29.74,10.0,South,21.9,32.2,N/A,,Clear,170,2013-11-20 07:34:00
1:53 AM,42.8,30.2,61,29.74,10.0,South,23.0,28.8,N/A,,Clear,170,2013-11-20 07:53:00
2:13 AM,42.8,30.2,61,29.74,10.0,South,20.7,27.6,N/A,,Clear,170,2013-11-20 08:13:00
2:33 AM,42.8,30.2,61,29.75,10.0,South,19.6,-,N/A,,Clear,170,2013-11-20 08:33:00
2:53 AM,42.8,30.2,61,29.76,10.0,South,19.6,-,N/A,,Clear,170,2013-11-20 08:53:00
3:14 AM,42.8,30.2,61,29.76,10.0,South,21.9,27.6,N/A,,Clear,170,2013-11-20 09:14:00
3:33 AM,42.8,30.2,61,29.76,10.0,South,20.7,26.5,N/A,,Clear,170,2013-11-20 09:33:00
3:53 AM,41.0,30.2,65,29.76,10.0,South,18.4,24.2,N/A,,Clear,170,2013-11-20 09:53:00
4:13 AM,41.0,30.2,65,29.76,10.0,SSE,17.3,21.9,N/A,,Clear,160,2013-11-20 10:13:00
4:33 AM,41.0,30.2,65,29.76,10.0,SSE,15.0,-,N/A,,Clear,160,2013-11-20 10:33:00
4:54 AM,41.0,30.2,65,29.76,10.0,SSE,17.3,-,N/A,,Clear,160,2013-11-20 10:54:00
5:13 AM,41.0,30.2,65,29.76,10.0,SSE,15.0,21.9,N/A,,Clear,160,2013-11-20 11:13:00
5:33 AM,41.0,30.2,65,29.77,10.0,SSE,15.0,19.6,N/A,,Clear,160,2013-11-20 11:33:00
5:53 AM,41.0,30.2,65,29.77,10.0,SSE,16.1,21.9,N/A,,Clear,160,2013-11-20 11:53:00
6:13 AM,39.2,30.2,70,29.77,10.0,SSE,15.0,-,N/A,,Clear,160,2013-11-20 12:13:00
6:34 AM,39.2,30.2,70,29.78,10.0,SSE,15.0,21.9,N/A,,Clear,160,2013-11-20 12:34:00
6:53 AM,39.2,30.2,70,29.78,10.0,SSE,13.8,-,N/A,,Clear,160,2013-11-20 12:53:00
7:13 AM,39.2,30.2,70,29.79,10.0,SSE,16.1,20.7,N/A,,Clear,160,2013-11-20 13:13:00
7:33 AM,39.2,30.2,70,29.79,10.0,SSE,13.8,18.4,N/A,,Clear,160,2013-11-20 13:33:00
7:53 AM,39.2,30.2,70,29.79,10.0,SSE,11.5,-,N/A,,Clear,160,2013-11-20 13:53:00
8:14 AM,39.2,30.2,70,29.80,10.0,SSE,11.5,-,N/A,,Clear,160,2013-11-20 14:14:00
8:33 AM,41.0,30.2,65,29.80,10.0,SSE,12.7,-,N/A,,Clear,160,2013-11-20 14:33:00
8:53 AM,41.0,30.2,65,29.81,10.0,SSE,11.5,-,N/A,,Clear,160,2013-11-20 14:53:00
9:13 AM,41.0,30.2,65,29.82,10.0,SSE,12.7,-,N/A,,Clear,160,2013-11-20 15:13:00
9:33 AM,41.0,28.4,61,29.82,10.0,South,15.0,-,N/A,,Clear,170,2013-11-20 15:33:00
9:54 AM,42.8,30.2,61,29.83,10.0,SSE,15.0,-,N/A,,Clear,160,2013-11-20 15:54:00
10:13 AM,42.8,30.2,61,29.83,10.0,SSE,17.3,-,N/A,,Clear,160,2013-11-20 16:13:00
10:34 AM,42.8,30.2,61,29.84,10.0,South,12.7,-,N/A,,Clear,170,2013-11-20 16:34:00
10:53 AM,44.6,30.2,57,29.84,10.0,South,13.8,-,N/A,,Clear,170,2013-11-20 16:53:00
11:13 AM,46.4,30.2,53,29.83,10.0,South,13.8,-,N/A,,Clear,170,2013-11-20 17:13:00
11:33 AM,44.6,30.2,57,29.84,10.0,SSE,16.1,-,N/A,,Clear,160,2013-11-20 17:33:00
11:53 AM,46.4,30.2,53,29.83,10.0,South,12.7,-,N/A,,Clear,170,2013-11-20 17:53:00
12:14 PM,46.4,30.2,53,29.82,10.0,South,12.7,19.6,N/A,,Clear,170,2013-11-20 18:14:00
12:33 PM,48.2,30.2,50,29.82,10.0,South,12.7,-,N/A,,Clear,170,2013-11-20 18:33:00
12:53 PM,48.2,30.2,50,29.82,10.0,SSE,12.7,-,N/A,,Clear,160,2013-11-20 18:53:00
1:13 PM,48.2,32.0,54,29.82,10.0,South,11.5,-,N/A,,Clear,170,2013-11-20 19:13:00
1:33 PM,48.2,32.0,54,29.81,10.0,South,11.5,-,N/A,,Clear,170,2013-11-20 19:33:00
1:54 PM,48.2,32.0,54,29.82,10.0,South,12.7,-,N/A,,Clear,170,2013-11-20 19:54:00
2:13 PM,48.2,33.8,58,29.82,10.0,SSE,9.2,-,N/A,,Clear,160,2013-11-20 20:13:00
2:33 PM,48.2,33.8,58,29.82,10.0,SSE,9.2,-,N/A,,Clear,160,2013-11-20 20:33:00
2:53 PM,48.2,33.8,58,29.82,10.0,SE,10.4,-,N/A,,Clear,140,2013-11-20 20:53:00
3:13 PM,48.2,33.8,58,29.82,10.0,SSE,10.4,-,N/A,,Clear,150,2013-11-20 21:13:00
3:34 PM,46.4,33.8,62,29.83,10.0,SE,10.4,-,N/A,,Clear,140,2013-11-20 21:34:00
3:53 PM,46.4,33.8,62,29.82,10.0,SE,10.4,-,N/A,,Clear,130,2013-11-20 21:53:00
4:13 PM,44.6,33.8,66,29.84,10.0,SE,8.1,-,N/A,,Clear,130,2013-11-20 22:13:00
4:33 PM,42.8,33.8,70,29.85,10.0,SE,6.9,-,N/A,,Clear,130,2013-11-20 22:33:00
4:53 PM,41.0,32.0,70,29.86,10.0,ESE,5.8,-,N/A,,Clear,120,2013-11-20 22:53:00
5:13 PM,37.4,30.2,75,29.86,10.0,ESE,5.8,-,N/A,,Clear,120,2013-11-20 23:13:00
5:33 PM,35.6,30.2,81,29.88,10.0,ESE,6.9,-,N/A,,Clear,110,2013-11-20 23:33:00
5:53 PM,33.8,30.2,87,29.88,10.0,ESE,8.1,-,N/A,,Clear,110,2013-11-20 23:53:00
6:14 PM,33.8,30.2,87,29.89,10.0,ESE,8.1,-,N/A,,Clear,110,2013-11-21 00:14:00
6:33 PM,33.8,30.2,87,29.90,10.0,ESE,8.1,-,N/A,,Clear,110,2013-11-21 00:33:00
6:54 PM,33.8,30.2,87,29.91,10.0,ESE,6.9,-,N/A,,Clear,110,2013-11-21 00:54:00
7:13 PM,32.0,30.2,93,29.91,10.0,ESE,5.8,-,N/A,,Clear,120,2013-11-21 01:13:00
7:33 PM,32.0,30.2,93,29.93,10.0,SE,3.5,-,N/A,,Clear,130,2013-11-21 01:33:00
7:53 PM,30.2,28.4,93,29.93,10.0,Calm,Calm,-,N/A,,Clear,0,2013-11-21 01:53:00
8:13 PM,33.8,30.2,87,29.94,10.0,Calm,Calm,-,N/A,,Clear,0,2013-11-21 02:13:00
8:34 PM,33.8,30.2,87,29.95,10.0,Calm,Calm,-,N/A,,Clear,0,2013-11-21 02:34:00
8:53 PM,30.2,28.4,93,29.95,10.0,Calm,Calm,-,N/A,,Clear,0,2013-11-21 02:53:00
9:13 PM,33.8,30.2,87,29.96,10.0,Calm,Calm,-,N/A,,Clear,0,2013-11-21 03:13:00
9:33 PM,26.6,26.6,100,29.97,7.0,WSW,5.8,-,N/A,,Clear,250,2013-11-21 03:33:00
9:53 PM,28.4,26.6,93,29.98,5.0,West,5.8,-,N/A,,Clear,260,2013-11-21 03:53:00
10:14 PM,28.4,26.6,93,29.99,5.0,West,8.1,-,N/A,,Mostly Cloudy,260,2013-11-21 04:14:00
10:33 PM,28.4,26.6,93,30.00,5.0,West,10.4,-,N/A,,Overcast,280,2013-11-21 04:33:00
10:53 PM,28.4,28.4,100,30.00,5.0,WNW,10.4,-,N/A,,Overcast,290,2013-11-21 04:53:00
11:13 PM,30.2,28.4,93,30.01,5.0,WNW,12.7,-,N/A,,Mostly Cloudy,290,2013-11-21 05:13:00
11:33 PM,30.2,28.4,93,30.02,5.0,West,8.1,-,N/A,,Scattered Clouds,280,2013-11-21 05:33:00
11:54 PM,28.4,26.6,93,30.03,7.0,West,12.7,18.4,N/A,,Overcast,280,2013-11-21 05:54:00